Location: Caltech
(34.1382°N, 118.1253°W)
Time: 18:28:22
(UTC-08:00)

Cosmos 2219 Rocket - Visible Passes

Search period start: 22 February 2018 00:00
Search period end: 04 March 2018 00:00
Orbit: 826 x 848 km, 71.0° (Epoch: 21 February)

Date Brightness Start Highest point End Pass type
(mag) Time Alt. Az. Time Alt. Az. Time Alt. Az.
22 Feb 5.3 18:48:52 10° WNW 18:52:09 16° W 18:55:24 10° SW visible
23 Feb 5.3 18:32:15 10° WNW 18:35:50 17° W 18:39:24 10° SW visible
24 Feb 5.1 05:50:52 10° SSE 05:55:10 23° E 05:59:29 10° NE visible
24 Feb 5.2 18:15:40 10° WNW 18:19:31 19° W 18:23:22 10° SW visible
25 Feb 5.1 05:34:46 10° SSE 05:38:51 21° E 05:42:57 10° NE visible
26 Feb 5.1 05:18:41 10° SE 05:22:32 19° E 05:26:23 10° ENE visible
27 Feb 5.1 05:02:39 10° SE 05:06:13 17° E 05:09:48 10° ENE visible
28 Feb 5.2 04:46:39 10° SE 04:49:55 16° E 04:53:10 10° ENE visible
01 Mar 5.2 04:30:43 10° SE 04:33:36 14° E 04:36:30 10° ENE visible
02 Mar 5.2 04:14:52 10° ESE 04:17:18 13° E 04:19:44 10° ENE visible
03 Mar 5.2 03:59:10 10° ESE 04:00:59 12° E 04:02:50 10° ENE visible
03 Mar 2.2 05:38:31 10° SSW 05:44:10 74° WNW 05:49:53 10° NNE visible
